Regional Weather Roundup
Issued by NWS

Home | Current Version | Previous Version | Graphics & Text | Print | Product List | Glossary On
Versions: 1 2 3 4 5 6 7 8 9 10 11 12 13 14 15 16 17 18 19 20 21 22 23 24 25 26 27 28 29 30 31 32 33 34 35 36 37 38 39 40 41 42 43 44 45 46 47 48 49 50
000
ASUS43 KDTX 021410
RWRMI
MICHIGAN HOURLY REGIONAL WEATHER ROUNDUP
NATIONAL WEATHER SERVICE DETROIT/PONTIAC MI
1000 AM EDT THU JUL 02 2015

NOTE: "FAIR" INDICATES FEW OR NO CLOUDS BELOW 12,000 FEET WITH NO
SIGNIFICANT WEATHER AND/OR OBSTRUCTION TO VISIBILITY.

MIZ047>049-052>055-059>063-066>070-074>076-081>083-021500-
SOUTHEAST LOWER MICHIGAN

CITY           SKY/WX    TMP DP  RH WIND       PRES   REMARKS
ADRIAN         CLOUDY    63  58  83 E9        30.01S
ALMA           CLOUDY    62  54  76 E5        30.05R
ANN ARBOR      MOSUNNY   65  56  72 VRB7      30.01R
BAD AXE        SUNNY     62  54  73 NE6       30.04R
CARO           CLOUDY    63  55  73 N7        30.03R
DETROIT CITY   PTSUNNY   64  54  69 NE6       30.01S
DETROIT        PTSUNNY   66  55  67 NE8       30.01R
FLINT          CLOUDY    65  53  65 NE7       30.02S
GROSSE ILE     SUNNY     66  57  72 NE9       29.99R
HILLSDALE      CLOUDY    63  60  90 NE7       30.01R
HOWELL         MOSUNNY   63  56  76 NE6       30.02R

CITY           SKY/WX    TMP DP  RH WIND       PRES   REMARKS
JACKSON        CLOUDY    61  57  87 NE8       30.02R
LAMBERTVILLE   CLOUDY    65  58  76 NE7       30.00R
LANSING        CLOUDY    63  55  75 E8        30.04R
LAPEER         CLOUDY    62  53  71 CALM      30.03S
MONROE         MOSUNNY   66  56  72 NE8       29.99S
MT. CLEMENS    MOSUNNY   65  56  71 N7        29.99S
PONTIAC        MOSUNNY   65  52  62 NE9       30.01S
PORT HOPE        N/A     60  55  83 VRB5      30.02R
PORT HURON     MOSUNNY   63  55  77 NE6       30.01S
TRI CITIES     MOSUNNY   66  55  67 NE8       30.04R
MIDLAND        PTSUNNY   63  50  63 NE5       30.04R
TROY           CLOUDY    64  55  72 NE8       30.03S
SAGINAW HB     CLOUDY    63  54  72 NE6       30.03R
$$
MIZ043>046-050>051-056>058-064>065-071>073-077>080-021500-
SOUTHWEST LOWER MICHIGAN

CITY           SKY/WX    TMP DP  RH WIND       PRES   REMARKS
BATTLE CREEK   CLOUDY    61  56  83 E5        30.02R
BENTON HARBOR  SUNNY     65  56  72 E7        30.01R
BIG RAPIDS     SUNNY     61  47  61 NE3       30.05R
COLDWATER      CLOUDY    61  57  87 NE8       30.01R FOG
FREMONT        FAIR      61  51  68 E5        30.05R
HOLLAND        CLOUDY    59  55  87 E6        30.05R
GRAND RAPIDS   MOSUNNY   63  55  75 E9        30.04R
IONIA          CLOUDY    61  57  86 NE8       30.04R
KALAMAZOO      CLOUDY    60  55  83 VRB3      30.02R
LUDINGTON      SUNNY     61  52  72 CALM      30.07R
MARSHALL       CLOUDY    59  56  91 NE5       30.02R FOG
MOUNT PLEASANT MOSUNNY   63  52  67 N3        30.04R
MUSKEGON       MOSUNNY   64  53  67 NE6       30.05R
SOUTH HAVEN    PTSUNNY   59  55  87 NE7       30.03R
$$
MIZ016>042-021500-
NORTHERN LOWER MICHIGAN

CITY           SKY/WX    TMP DP  RH WIND       PRES   REMARKS
ALPENA         SUNNY     65  48  54 N9        30.05S
BEAVER ISLAND  SUNNY     62  49  61 NW7       30.06S
BELLAIRE       SUNNY     61  48  62 N3        30.05S
CADILLAC       SUNNY     62  47  60 NE7       30.05R
CHARLEVOIX     SUNNY     59  51  72 N8        30.09R
FRANKFORT      SUNNY     65  45  49 NE3       30.07R
GAYLORD        SUNNY     62  44  51 NE7       30.05S
GRAYLING       SUNNY     63  47  55 NE6       30.05S
HARBOR SPRINGS SUNNY     60  49  67 SW3       30.06S
HOUGHTON LAKE  SUNNY     61  46  57 NE8       30.06R
MANISTEE       SUNNY     57  48  72 E8        30.06S
OSCODA         SUNNY     64  48  55 N9        30.03R
PELLSTON       SUNNY     64  49  57 VRB3      30.06S
ROGERS CITY    SUNNY     61  52  73 N6        30.06S
TRAVERSE CITY  SUNNY     60  49  66 N6        30.05R
$$
MIZ007>008-015-021500-
EASTERN UPPER MICHIGAN

CITY           SKY/WX    TMP DP  RH WIND       PRES   REMARKS
KINROSS        SUNNY     61  48  63 N3        30.06S
MACKINAC ISLAN SUNNY     60  45  58 N5        30.05S
NEWBERRY       SUNNY     63  48  58 CALM      30.06S
S. S. MARIE    SUNNY     60  47  61 CALM      30.05F
MUNISING         N/A     61  48  62 VRB3      30.07R
$$
MIZ004>006-011>014-085-021500-
CENTRAL UPPER MICHIGAN

CITY           SKY/WX    TMP DP  RH WIND       PRES   REMARKS
MANISTIQUE     PTSUNNY   61  46  58 W3        30.07S
ESCANABA       SUNNY     61  45  55 W5        30.07F
MENOMINEE      SUNNY     61  45  55 N3        30.08S
SAWYER-GWINN   MOSUNNY   61  45  55 W12       30.08S
$$
MIZ001>003-009>011-084-021500-
WESTERN UPPER MICHIGAN

CITY           SKY/WX    TMP DP  RH WIND       PRES   REMARKS
IRON MOUNTAIN  SUNNY     61  46  57 VRB5      30.08S
HOUGHTON       CLOUDY    63  48  58 SW5       30.05R
COPPER HARBOR    N/A     62  49  62 SW8       30.03R
IRONWOOD       SUNNY     63  52  67 S8        30.03F
$$

ABBREVIATIONS USED IN REMARKS
   TC - TEMPERATURE IN CELSIUS
  WCI - WIND CHILL INDEX
   HX - HEAT INDEX
  VSB - VISIBILITY




USA.gov is the U.S. government's official web portal to all federal, state and local government web resources and services.